Location: Ballingbuur
(53.0000°N, 5.7667°E)
Time: 21:08:36
(UTC+00:00)

Cosmos 372 Rocket - Pass Details

Date: 29 November 2020
Orbit: 737 x 769 km, 74.1° (Epoch: 25 January)

Event Time Altitude Azimuth Distance (km) Brightness Sun altitude
Rises 06:12:34 0° 207° (SSW) 3,161 7.1 -10.3°
Reaches altitude 10° 06:14:54 10° 208° (SSW) 2,241 6.4 -10.0°
Maximum altitude 06:19:59 81° 297° (WNW) 755 3.9 -9.3°
Drops below altitude 10° 06:25:07 10° 25° (NNE) 2,262 6.5 -8.6°
Sets 06:27:29 0° 26° (NNE) 3,193 7.2 -8.3°
